This is the latest recevied weather packets stored in our database for station/object SP1BMW-13. If no packets are shown the sender has not sent any weather packets the latest 1 day(s).
| Time | Temp. | Humidity | Pressure | Rain* | Wind** | Luminosity | Snow |
|---|---|---|---|---|---|---|---|
| 1778019766 | 11.11° C | 92% | 1007.7 hPa | 0 mm | 0.45 m/s, 352° | 0 W/m² | - |
| 1778019706 | 11.11° C | 92% | 1007.6 hPa | 0 mm | 0.89 m/s, 62° | 0 W/m² | - |
| 1778019646 | 11.11° C | 92% | 1007.8 hPa | 0 mm | 0.45 m/s, 41° | 0 W/m² | - |
| 1778019586 | 11.11° C | 92% | 1007.5 hPa | 0 mm | 0.45 m/s, 33° | 0 W/m² | - |
| 1778019526 | 11.11° C | 92% | 1007.8 hPa | 0 mm | 0.45 m/s, 44° | 0 W/m² | - |
| 1778019466 | 11.11° C | 92% | 1007.6 hPa | 0 mm | 0.45 m/s, 44° | 0 W/m² | - |
| 1778019407 | 11.11° C | 92% | 1007.7 hPa | 0 mm | 1.34 m/s, 33° | 0 W/m² | - |
| 1778019346 | 11.11° C | 92% | 1007.7 hPa | 0 mm | 1.79 m/s, 38° | 0 W/m² | - |
| 1778019286 | 11.11° C | 92% | 1007.7 hPa | 0 mm | 0.89 m/s, 22° | 0 W/m² | - |
| 1778019226 | 11.11° C | 92% | 1007.6 hPa | 0 mm | 0.89 m/s, 49° | 0 W/m² | - |
| 1778019166 | 11.11° C | 92% | 1007.6 hPa | 0 mm | 0.45 m/s, 14° | 0 W/m² | - |
| 1778019106 | 11.11° C | 92% | 1007.7 hPa | 0 mm | 0.45 m/s, 58° | 0 W/m² | - |
| 1778019046 | 11.11° C | 92% | 1007.6 hPa | 0 mm | 1.79 m/s, 40° | 0 W/m² | - |
| 1778018986 | 11.11° C | 92% | 1007.7 hPa | 0 mm | 0.89 m/s, 31° | 0 W/m² | - |
| 1778018926 | 11.11° C | 92% | 1007.6 hPa | 0 mm | 0.89 m/s, 35° | 0 W/m² | - |
| 1778018866 | 11.11° C | 92% | 1007.6 hPa | 0 mm | 1.79 m/s, 46° | 0 W/m² | - |
| 1778018806 | 11.11° C | 92% | 1007.7 hPa | 0 mm | 1.79 m/s, 77° | 0 W/m² | - |
| 1778018746 | 11.11° C | 92% | 1007.8 hPa | 0 mm | 0 m/s | 0 W/m² | - |
| 1778018689 | 11.11° C | 92% | 1007.6 hPa | 0 mm | 0.45 m/s, 309° | 0 W/m² | - |
| 1778018626 | 11.11° C | 92% | 1007.8 hPa | 0 mm | 0.89 m/s, 15° | 0 W/m² | - |
| 1778018566 | 11.11° C | 92% | 1007.7 hPa | 0 mm | 1.34 m/s, 37° | 0 W/m² | - |
| 1778018506 | 11.11° C | 92% | 1007.6 hPa | 0 mm | 0.45 m/s, 8° | 0 W/m² | - |
| 1778018446 | 11.11° C | 92% | 1007.7 hPa | 0 mm | 0.45 m/s, 16° | 0 W/m² | - |
| 1778018387 | 11.11° C | 92% | 1007.8 hPa | 0 mm | 0.89 m/s, 48° | 0 W/m² | - |
| 1778018326 | 11.11° C | 92% | 1007.7 hPa | 0 mm | 0.45 m/s, 4° | 0 W/m² | - |
* Rain latest hour (hover to see other rain measurements)
** Current wind speed in m/s (hover to see current wind gust speed)